FW6663 Weather Reports


time (UTC)temp
F
wind
direction
speed
knots
gust
knots
rain 1hr
in
rain 24hr
in
rain mn
in
humidity
%
barometer
mb
20260505151559 51 158 0.9 3.5 0.00 0.00 0.00 94 1008.7
20260505124530 52 0 0.9 3.5 0.00 0.00 0.00 94 1009.5
20260505123044 52 143 0.9 4.3 0.00 0.00 0.00 95 1009.6
20260505121528 51 134 0.9 6.1 0.00 0.00 0.00 95 1009.6
20260505120042 51 136 1.7 4.3 0.00 0.00 0.00 94 1009.6
20260505114532 52 148 0.0 2.6 0.00 0.00 0.00 95 1009.8
20260505113032 52 195 0.9 4.3 0.00 0.00 0.00 95 1009.9
20260505111534 51 146 0.0 2.6 0.00 0.00 0.00 94 1009.9
20260505101529 52 137 0.9 3.5 0.00 0.00 0.00 95 1010.1
20260505100033 52 109 0.9 2.6 0.00 0.00 0.00 95 1010.0
20260505094531 51 123 0.9 4.3 0.00 0.00 0.00 95 1010.1
20260505093030 51 136 0.9 4.3 0.00 0.00 0.00 95 1010.0
20260505091528 51 163 0.9 2.6 0.00 0.00 0.00 95 1010.1
20260505090027 51 165 0.9 3.5 0.00 0.00 0.00 95 1010.0
20260505084531 51 129 0.9 4.3 0.00 0.00 0.00 95 1010.1
20260505083028 51 0 0.0 2.6 0.00 0.00 0.00 95 1010.2
20260505081528 51 141 0.9 2.6 0.00 0.00 0.00 95 1010.1
20260505080030 51 141 0.9 2.6 0.00 0.00 0.00 95 1010.3
20260505074533 51 0 0.0 0.9 0.00 0.00 0.00 95 1010.3
20260505073028 51 136 0.0 1.7 0.00 0.00 0.00 95 1010.2
20260505071528 51 0 0.0 1.7 0.00 0.00 0.00 95 1010.3
20260505070031 51 134 0.0 1.7 0.00 0.00 0.00 95 1010.3
20260505064534 52 134 0.9 1.7 0.00 0.00 0.00 95 1010.3
20260505063028 52 154 0.9 1.7 0.00 0.00 0.00 95 1010.3
20260505061528 52 149 0.9 3.5 0.00 0.00 0.00 95 1010.4
20260505060029 52 144 0.0 1.7 0.00 0.00 0.00 94 1010.4
20260505054544 52 0 0.0 0.9 0.00 0.00 0.00 95 1010.4
20260505053028 52 158 0.9 2.6 0.00 0.00 0.00 94 1010.4
20260505051532 53 141 0.9 1.7 0.00 0.00 0.00 94 1010.3
20260505041528 53 136 0.9 2.6 0.00 0.00 0.00 94 1010.3
20260505040032 53 0 0.0 0.0 0.00 0.00 0.00 94 1010.5
20260505034538 54 0 0.0 0.0 0.00 0.00 0.00 95 1010.6
20260505033032 54 0 0.0 0.0 0.00 0.00 0.00 95 1010.6
20260505031530 54 0 0.0 0.0 0.00 0.00 0.00 95 1010.6
20260505030042 54 0 0.0 0.0 0.00 0.00 0.00 95 1010.8
20260505024530 54 0 0.0 0.0 0.00 0.00 0.00 94 1010.8
20260505023039 54 0 0.0 0.0 0.00 0.00 0.00 94 1010.8
20260505021532 54 0 0.0 0.0 0.00 0.00 0.00 94 1010.8
20260505020029 54 0 0.0 0.0 0.00 0.00 0.00 94 1010.8
20260505014535 54 0 0.0 0.0 0.00 0.00 0.00 94 1010.8
20260505013028 54 0 0.0 0.0 0.00 0.00 0.00 94 1010.9
20260505011530 54 0 0.0 0.0 0.00 0.00 0.00 94 1010.9
20260505010029 54 0 0.0 0.0 0.00 0.00 0.00 94 1011.0
20260505004553 54 0 0.0 0.9 0.00 0.00 0.00 94 1011.1
20260505003030 54 136 0.9 1.7 0.00 0.00 0.00 94 1011.2
20260505001535 54 136 0.9 1.7 0.00 0.00 0.00 94 1011.3
20260505000036 55 138 0.9 1.7 0.00 0.00 0.00 94 1011.4
20260504234530 55 139 0.9 1.7 0.00 0.00 0.00 94 1011.5
20260504233028 55 0 0.0 0.9 0.00 0.00 0.00 94 1011.5
20260504231529 55 160 0.9 1.7 0.00 0.00 0.00 94 1011.7
20260504230031 55 0 0.0 0.0 0.00 0.00 0.00 94 1011.8
20260504224534 55 0 0.0 0.0 0.00 0.00 0.00 94 1011.9
20260504223028 55 0 0.0 0.0 0.00 0.00 0.00 94 1012.0
20260504221536 55 0 0.0 0.0 0.00 0.00 0.00 94 1012.1
20260504220029 54 0 0.0 0.0 0.00 0.00 0.00 94 1012.2
20260504214529 54 0 0.0 0.0 0.00 0.00 0.00 94 1012.3
20260504213037 54 0 0.0 0.0 0.00 0.00 0.00 93 1012.4
20260504211534 54 0 0.0 0.0 0.00 0.00 0.00 94 1012.4
20260504210032 55 0 0.0 0.0 0.00 0.00 0.00 93 1012.6
20260504204533 55 0 0.0 0.0 0.00 0.00 0.00 93 1012.7
20260504203030 56 0 0.0 0.0 0.00 0.00 0.00 93 1012.8
20260504201530 56 0 0.0 0.0 0.00 0.00 0.00 93 1012.8
20260504200030 56 0 0.0 0.0 0.00 0.00 0.00 93 1012.7
20260504194530 56 0 0.0 0.0 0.00 0.00 0.00 93 1012.4
20260504193030 56 0 0.0 0.0 0.00 0.00 0.00 93 1012.3
20260504191541 56 0 0.0 0.0 0.00 0.00 0.00 92 1012.1
20260504190031 57 0 0.0 0.0 0.00 0.00 0.00 92 1012.1
20260504184541 57 0 0.0 0.0 0.00 0.00 0.00 92 1012.2
20260504183029 57 0 0.0 0.9 0.00 0.00 0.00 92 1012.1
20260504181533 58 0 0.0 0.0 0.00 0.00 0.00 92 1012.0
20260504180034 58 0 0.0 0.0 0.00 0.00 0.00 91 1012.0
20260504174528 58 0 0.0 0.0 0.00 0.00 0.00 91 1012.1
20260504173028 58 0 0.0 0.0 0.00 0.00 0.00 91 1012.0
20260504171530 58 0 0.0 0.0 0.00 0.00 0.00 91 1012.0